Regional Weather Roundup
Issued by NWS

Home | Current Version | Previous Version | Text Only | Print | Product List | Glossary Off
Versions: 1 2 3 4 5 6 7 8 9 10 11 12 13 14 15 16 17 18 19 20 21 22 23 24 25 26 27 28 29 30 31 32 33 34 35 36 37 38 39 40 41 42 43 44 45 46 47 48 49 50

000
ASUS45 KABQ 291201
RWRNM
NEW MEXICO REGIONAL WEATHER ROUNDUP
NATIONAL WEATHER SERVICE ALBUQUERQUE NM
600 AM MDT FRI MAY 29 2015

NOTE: "FAIR" MEANS FEW OR NO CLOUDS BELOW 12,000 FEET AGL WITH NO
       SIGNIFICANT WEATHER OR OBSTRUCTIONS TO VISION.

      THIS PRODUCT IS RELEASED AS TWO VERSIONS.  ONE VERSION NEAR
      THE TOP OF THE HOUR CONTAINING PRELIMINARY DATA FROM ALBUQUERQUE
      AND OTHER STATIONS.  A FINAL VERSION WITH ADDITIONAL DATA IS
      ISSUED ABOUT 10 MINUTES AFTER THE HOUR.

NMZ501-503-504-510>518-291300-
NORTHWEST PLATEAU/NORTHCENTRAL MOUNTAINS

CITY           SKY/WX    TMP DP  RH WIND       PRES   REMARKS
FARMINGTON     CLEAR     45  37  73 NE6       30.16R
6HR MIN TEMP:  45; 6HR MAX TEMP:  60;

SANTA FE       CLEAR     47  34  60 NE8       30.17S
6HR MIN TEMP:  47; 6HR MAX TEMP:  59;

TAOS           CLEAR     43  28  56 NW3       30.23R
ANGEL FIRE     FAIR      32  30  92 CALM      30.29S

$$
NMZ402-403-502-505>509-291300-
WESTCENTRAL MOUNTAINS/SOUTHWEST MOUNTAINS

CITY           SKY/WX    TMP DP  RH WIND       PRES   REMARKS
GALLUP         MOCLDY    44  33  65 CALM      30.21R
6HR MIN TEMP:  43; 6HR MAX TEMP:  59;

GRANTS         MOCLDY    41  30  65 NW6       30.23R
SILVER CITY      N/A     55  19  24 N13       30.14R

$$
NMZ407-409-411-412-291300-
SOUTHERN DESERTS

CITY           SKY/WX    TMP DP  RH WIND       PRES   REMARKS
LORDSBURG      FAIR      54  19  26 CALM      30.06S
DEMING         PTCLDY    56  22  26 S6        30.05R
6HR MIN TEMP:  53; 6HR MAX TEMP:  69;

HOLLOMAN AFB   CLEAR     58  24  27 NE7       29.99R
ALAMOGORDO     CLEAR     55  19  24 CALM      30.01R
T OR C         CLEAR     59  19  21 VRB3      30.08R
6HR MIN TEMP:  59; 6HR MAX TEMP:  73;


$$
NMZ519>523-291300-
CENTRAL VALLEYS/CENTRAL HIGHLANDS

CITY           SKY/WX    TMP DP  RH WIND       PRES   REMARKS
ALBUQUERQUE    PTCLDY    60  37  42 NW10      30.13R
6HR MIN TEMP:  60; 6HR MAX TEMP:  71;

DOUBLE EAGLE   PTCLDY    48  37  66 N3        30.17R
MORIARTY ARPT  FAIR      42  35  78 CALM      30.19R
6HR MIN TEMP:  39; 6HR MAX TEMP:  53;

CLINES CORNERS PTCLDY    48  45  89 NE6       30.19R
6HR MIN TEMP:  44; 6HR MAX TEMP:  58;

BELEN          FAIR      54  34  46 NW3       30.13R
6HR MIN TEMP:  53; 6HR MAX TEMP:  64;

SOCORRO        NOT AVBL

$$
NMZ524>526-539-540-291300-
SOUTHCENTRAL MOUNTAINS

CITY           SKY/WX    TMP DP  RH WIND       PRES   REMARKS
RUIDOSO        NOT AVBL

$$
NMZ527>531-291300-
NORTHEAST HIGHLANDS/NORTHEAST PLAINS

CITY           SKY/WX    TMP DP  RH WIND       PRES   REMARKS
LAS VEGAS      CLEAR     43  36  76 NW8       30.19R
6HR MIN TEMP:  41; 6HR MAX TEMP:  52;

RATON          CLEAR     49  43  80 N10       30.16R
6HR MIN TEMP:  46; 6HR MAX TEMP:  57;

CLAYTON        PTCLDY    54  48  80 N8        30.11R
6HR MIN TEMP:  49; 6HR MAX TEMP:  55;


$$
NMZ532>537-291300-
EASTCENTRAL PLAINS

CITY           SKY/WX    TMP DP  RH WIND       PRES   REMARKS
TUCUMCARI      CLEAR     52  49  89 N3        30.05R
6HR MIN TEMP:  52; 6HR MAX TEMP:  60;

CANNON AFB     CLEAR     53  49  86 NW3       30.06S
6HR MIN TEMP:  53; 6HR MAX TEMP:  59;

CLOVIS AIRPORT CLEAR     50  46  87 W5        30.04S

$$
NMZ028-029-538-291300-
SOUTHEAST PLAINS

CITY           SKY/WX    TMP DP  RH WIND       PRES   REMARKS
ROSWELL        CLEAR     56  52  86 W7        30.01S
6HR MIN TEMP:  53; 6HR MAX TEMP:  63;

ARTESIA        CLEAR     52  52 100 NW8       30.03R
CARLSBAD       CLEAR     57  53  86 N6        29.98R
6HR MIN TEMP:  55; 6HR MAX TEMP:  60;

HOBBS          CLEAR     54  54 100 CALM      30.02S


$$


USA.gov is the U.S. government's official web portal to all federal, state and local government web resources and services.